User: anonymous   Login
Location: Tauranga
(37.6860°S, 176.1670°E)
Time: 01:06:24
(UTC+13:00)
Language:

Cosmos 968 Rocket - Orbit

View from above orbital plane
View from above orbital plane
View from above satellite
View from above satellite

Ground track
Ground track

The orbit data is extracted from the following two-line orbital elements,

1 10521U 77119B   19078.33313505 +.00000025 +00000-0 +16160-4 0  9997
2 10521 074.0288 162.2088 0020743 015.1987 344.9786 14.40745331164187
Epoch (UTC): 19 March 2019 07:59:42
Eccentricity: 0.0020743
inclination: 74.0288°
perigee height: 741 km
apogee height: 771 km
right ascension of ascending node: 162.2088°
argument of perigee: 15.1987°
revolutions per day: 14.40745331
mean anomaly at epoch: 344.9786°
orbit number at epoch: 16418

The dashed part of the orbit path shows where the satellite is in the earth's shadow,  

DLR